Check out our new BloomSky Weather System.

Active alerts


No alerts


Thunder radar  blitzortung!


Rain radar more information rain snow radar


Visit our other weather sites:

Template documentation
and downloads

And another site



Weather Underground History page Text

Daily Summary for September 8, 2017 Units:  English    Metric   Both
« Previous Day
Next Day »
Daily Weekly Monthly Yearly Custom
  High: Low: Average:
Temperature: 83.8 °F 61.5 °F 72.9 °F
Dew Point: 62.4 °F 57.9 °F 60.2 °F
Humidity: 88 % 44 % 67 %
Wind Speed: 7.0 mph 0.0 mph 1.1 mph
Wind Gust: 11.0 mph - -
Wind:- - SSE
Pressure: 30.15 in 30.03 in -
Precipitation: 0.00 in    
Historical Graphs
 
 
Tabular Data for September 8, 2017
Time Temperature Dew Point Pressure Wind Wind Speed Wind Gust Humidity Rainfall Rate (Hourly)
00:04 67.3 °F 61.0 °F 30.06 in Calm   2.0 mph 80 % 0.00 in
00:09 67.5 °F 60.8 °F 30.06 in Calm   2.0 mph 79 % 0.00 in
00:14 67.5 °F 60.4 °F 30.06 in NNW 1.0 mph 2.0 mph 78 % 0.00 in
00:19 67.6 °F 60.6 °F 30.06 in Calm   2.0 mph 78 % 0.00 in
00:24 67.5 °F 60.4 °F 30.06 in Calm   2.0 mph 78 % 0.00 in
00:29 67.5 °F 60.1 °F 30.06 in Calm   2.0 mph 77 % 0.00 in
00:34 67.5 °F 60.1 °F 30.06 in Calm   4.0 mph 77 % 0.00 in
00:39 67.5 °F 59.5 °F 30.06 in Calm   4.0 mph 76 % 0.00 in
00:44 67.6 °F 59.7 °F 30.06 in Calm   4.0 mph 76 % 0.00 in
00:49 67.6 °F 59.7 °F 30.06 in Calm   3.0 mph 76 % 0.00 in
00:54 67.6 °F 59.7 °F 30.06 in Calm   5.0 mph 76 % 0.00 in
00:59 67.5 °F 59.5 °F 30.06 in Calm   5.0 mph 76 % 0.00 in
01:04 67.3 °F 59.9 °F 30.06 in Calm   5.0 mph 77 % 0.00 in
01:09 67.1 °F 59.7 °F 30.06 in Calm   3.0 mph 77 % 0.00 in
01:14 66.9 °F 59.5 °F 30.05 in Calm   3.0 mph 77 % 0.00 in
01:19 66.7 °F 59.7 °F 30.05 in Calm   3.0 mph 78 % 0.00 in
01:24 66.7 °F 59.7 °F 30.05 in Calm   2.0 mph 78 % 0.00 in
01:29 66.6 °F 59.5 °F 30.05 in Calm   3.0 mph 78 % 0.00 in
01:34 66.6 °F 59.5 °F 30.05 in Calm   3.0 mph 78 % 0.00 in
01:39 66.4 °F 59.4 °F 30.05 in NW 1.0 mph 3.0 mph 78 % 0.00 in
01:44 66.4 °F 59.4 °F 30.06 in NE 1.0 mph 2.0 mph 78 % 0.00 in
01:49 66.2 °F 59.2 °F 30.06 in Calm   3.0 mph 78 % 0.00 in
01:54 66.2 °F 59.2 °F 30.06 in Calm   3.0 mph 78 % 0.00 in
01:59 66.0 °F 59.0 °F 30.06 in Calm   3.0 mph 78 % 0.00 in
02:04 66.2 °F 59.2 °F 30.06 in North 1.0 mph 3.0 mph 78 % 0.00 in
02:09 66.2 °F 59.2 °F 30.06 in Calm   3.0 mph 78 % 0.00 in
02:14 66.2 °F 59.2 °F 30.06 in NE 2.0 mph 3.0 mph 78 % 0.00 in
02:19 66.2 °F 59.2 °F 30.06 in North 2.0 mph 3.0 mph 78 % 0.00 in
02:24 66.2 °F 58.8 °F 30.06 in Calm   3.0 mph 77 % 0.00 in
02:29 66.2 °F 59.2 °F 30.06 in Calm   4.0 mph 78 % 0.00 in
02:34 66.0 °F 59.0 °F 30.06 in Calm   4.0 mph 78 % 0.00 in
02:39 66.0 °F 59.0 °F 30.06 in Calm   4.0 mph 78 % 0.00 in
02:44 66.0 °F 59.0 °F 30.06 in Calm   2.0 mph 78 % 0.00 in
02:49 65.8 °F 58.8 °F 30.06 in North 1.0 mph 4.0 mph 78 % 0.00 in
02:54 65.8 °F 59.2 °F 30.06 in Calm   4.0 mph 79 % 0.00 in
02:59 65.7 °F 59.0 °F 30.06 in WNW 1.0 mph 4.0 mph 79 % 0.00 in
03:04 65.7 °F 59.0 °F 30.06 in WNW 1.0 mph 3.0 mph 79 % 0.00 in
03:09 65.5 °F 58.8 °F 30.07 in Calm   3.0 mph 79 % 0.00 in
03:14 65.5 °F 58.8 °F 30.07 in NNE 1.0 mph 2.0 mph 79 % 0.00 in
03:19 65.5 °F 58.8 °F 30.06 in Calm   2.0 mph 79 % 0.00 in
03:24 65.3 °F 59.0 °F 30.07 in North 1.0 mph 2.0 mph 80 % 0.00 in
03:29 65.1 °F 58.8 °F 30.07 in ENE 1.0 mph 2.0 mph 80 % 0.00 in
03:34 65.1 °F 58.8 °F 30.07 in Calm   3.0 mph 80 % 0.00 in
03:39 64.9 °F 58.6 °F 30.07 in Calm   3.0 mph 80 % 0.00 in
03:44 64.9 °F 59.0 °F 30.08 in Calm   3.0 mph 81 % 0.00 in
03:49 64.8 °F 58.8 °F 30.07 in Calm   2.0 mph 81 % 0.00 in
03:54 64.6 °F 58.6 °F 30.08 in Calm   2.0 mph 81 % 0.00 in
03:55 64.6 °F 58.6 °F 30.08 in Calm   2.0 mph 81 % 0.00 in
04:00 64.4 °F 58.8 °F 30.08 in NE 1.0 mph 2.0 mph 82 % 0.00 in
04:05 64.2 °F 58.6 °F 30.08 in Calm   2.0 mph 82 % 0.00 in
04:10 64.0 °F 58.5 °F 30.08 in Calm   2.0 mph 82 % 0.00 in
04:15 63.9 °F 58.6 °F 30.08 in Calm   2.0 mph 83 % 0.00 in
04:20 63.9 °F 58.6 °F 30.08 in Calm   2.0 mph 83 % 0.00 in
04:25 63.7 °F 58.5 °F 30.09 in Calm   1.0 mph 83 % 0.00 in
04:30 63.5 °F 58.6 °F 30.09 in Calm   1.0 mph 84 % 0.00 in
04:36 63.3 °F 58.5 °F 30.09 in Calm   1.0 mph 84 % 0.00 in
04:41 63.1 °F 58.6 °F 30.09 in Calm   1.0 mph 85 % 0.00 in
04:46 63.0 °F 58.5 °F 30.09 in Calm   1.0 mph 85 % 0.00 in
04:51 63.0 °F 58.5 °F 30.09 in Calm   1.0 mph 85 % 0.00 in
04:56 62.8 °F 58.3 °F 30.09 in Calm   1.0 mph 85 % 0.00 in
05:01 62.8 °F 58.5 °F 30.09 in Calm   1.0 mph 86 % 0.00 in
05:06 62.6 °F 58.3 °F 30.09 in Calm   1.0 mph 86 % 0.00 in
05:11 62.4 °F 58.1 °F 30.09 in Calm   1.0 mph 86 % 0.00 in
05:16 62.4 °F 58.5 °F 30.09 in Calm   1.0 mph 87 % 0.00 in
05:21 62.2 °F 58.3 °F 30.09 in Calm   1.0 mph 87 % 0.00 in
05:26 62.2 °F 58.3 °F 30.09 in Calm   1.0 mph 87 % 0.00 in
05:31 62.2 °F 58.3 °F 30.09 in Calm   1.0 mph 87 % 0.00 in
05:36 62.1 °F 58.5 °F 30.09 in Calm   1.0 mph 88 % 0.00 in
05:41 61.9 °F 58.3 °F 30.09 in Calm   1.0 mph 88 % 0.00 in
05:46 61.9 °F 58.3 °F 30.09 in Calm   1.0 mph 88 % 0.00 in
05:51 61.9 °F 58.3 °F 30.10 in Calm   1.0 mph 88 % 0.00 in
05:56 61.9 °F 58.3 °F 30.10 in Calm   1.0 mph 88 % 0.00 in
06:01 61.9 °F 58.3 °F 30.10 in Calm   1.0 mph 88 % 0.00 in
06:06 61.9 °F 58.3 °F 30.10 in Calm   1.0 mph 88 % 0.00 in
06:11 61.7 °F 58.1 °F 30.10 in Calm   1.0 mph 88 % 0.00 in
06:16 61.5 °F 57.9 °F 30.10 in Calm   1.0 mph 88 % 0.00 in
06:21 61.5 °F 57.9 °F 30.10 in Calm   1.0 mph 88 % 0.00 in
06:26 61.5 °F 57.9 °F 30.10 in Calm   1.0 mph 88 % 0.00 in
06:31 61.7 °F 58.1 °F 30.10 in Calm   1.0 mph 88 % 0.00 in
06:36 61.9 °F 57.9 °F 30.10 in Calm   1.0 mph 87 % 0.00 in
06:41 61.9 °F 57.9 °F 30.10 in Calm   1.0 mph 87 % 0.00 in
06:46 61.9 °F 57.9 °F 30.11 in Calm   1.0 mph 87 % 0.00 in
06:51 62.1 °F 58.1 °F 30.11 in Calm   2.0 mph 87 % 0.00 in
06:56 62.1 °F 58.1 °F 30.11 in Calm   3.0 mph 87 % 0.00 in
07:01 62.1 °F 58.1 °F 30.11 in North 2.0 mph 3.0 mph 87 % 0.00 in
07:06 61.9 °F 57.9 °F 30.11 in Calm   3.0 mph 87 % 0.00 in
07:12 61.9 °F 57.9 °F 30.11 in Calm   2.0 mph 87 % 0.00 in
07:17 61.9 °F 57.9 °F 30.11 in NNW 1.0 mph 2.0 mph 87 % 0.00 in
07:21 61.9 °F 57.9 °F 30.11 in Calm   1.0 mph 87 % 0.00 in
07:27 61.9 °F 57.9 °F 30.12 in Calm   1.0 mph 87 % 0.00 in
07:32 62.1 °F 58.1 °F 30.11 in Calm   1.0 mph 87 % 0.00 in
07:37 62.1 °F 58.1 °F 30.11 in NNW 1.0 mph 1.0 mph 87 % 0.00 in
07:42 62.2 °F 58.3 °F 30.12 in Calm   1.0 mph 87 % 0.00 in
07:47 62.4 °F 58.5 °F 30.11 in Calm   2.0 mph 87 % 0.00 in
07:52 63.0 °F 58.6 °F 30.12 in Calm   2.0 mph 86 % 0.00 in
07:57 63.7 °F 59.0 °F 30.11 in Calm   2.0 mph 85 % 0.00 in
08:02 64.6 °F 59.4 °F 30.12 in Calm   5.0 mph 83 % 0.00 in
08:07 65.3 °F 59.4 °F 30.12 in Calm   5.0 mph 81 % 0.00 in
08:12 66.0 °F 59.7 °F 30.12 in SE 1.0 mph 5.0 mph 80 % 0.00 in
08:17 66.6 °F 59.5 °F 30.12 in Calm   4.0 mph 78 % 0.00 in
08:22 67.1 °F 59.7 °F 30.12 in Calm   4.0 mph 77 % 0.00 in
08:27 67.6 °F 59.7 °F 30.12 in SSE 1.0 mph 6.0 mph 76 % 0.00 in
08:32 68.4 °F 60.1 °F 30.12 in ESE 2.0 mph 6.0 mph 75 % 0.00 in
08:37 68.9 °F 59.9 °F 30.12 in ENE 2.0 mph 6.0 mph 73 % 0.00 in
08:42 69.1 °F 60.1 °F 30.12 in East 5.0 mph 5.0 mph 73 % 0.00 in
08:47 69.4 °F 60.4 °F 30.12 in ENE 1.0 mph 6.0 mph 73 % 0.00 in
08:52 70.3 °F 60.1 °F 30.12 in ENE 3.0 mph 6.0 mph 70 % 0.00 in
08:57 70.3 °F 59.7 °F 30.12 in ENE 4.0 mph 6.0 mph 69 % 0.00 in
08:59 70.3 °F 60.1 °F 30.12 in East 1.0 mph 6.0 mph 70 % 0.00 in
09:04 70.7 °F 60.1 °F 30.12 in NW 2.0 mph 8.0 mph 69 % 0.00 in
09:09 70.9 °F 59.7 °F 30.13 in NNW 2.0 mph 8.0 mph 68 % 0.00 in
09:14 71.2 °F 59.7 °F 30.13 in Calm   8.0 mph 67 % 0.00 in
09:19 72.0 °F 60.8 °F 30.13 in Calm   7.0 mph 68 % 0.00 in
09:24 72.3 °F 60.3 °F 30.13 in ESE 2.0 mph 7.0 mph 66 % 0.00 in
09:29 72.3 °F 59.9 °F 30.13 in ESE 4.0 mph 6.0 mph 65 % 0.00 in
09:34 72.3 °F 59.5 °F 30.13 in ESE 3.0 mph 9.0 mph 64 % 0.00 in
09:39 72.5 °F 59.5 °F 30.13 in NE 5.0 mph 9.0 mph 64 % 0.00 in
09:44 72.9 °F 60.4 °F 30.13 in ESE 6.0 mph 9.0 mph 65 % 0.00 in
09:49 73.2 °F 60.8 °F 30.13 in East 2.0 mph 8.0 mph 65 % 0.00 in
09:54 73.8 °F 60.8 °F 30.13 in NE 1.0 mph 8.0 mph 64 % 0.00 in
09:59 74.1 °F 60.8 °F 30.13 in ENE 3.0 mph 7.0 mph 63 % 0.00 in
10:04 74.8 °F 61.3 °F 30.13 in SSE 1.0 mph 7.0 mph 63 % 0.00 in
10:09 75.4 °F 60.4 °F 30.13 in ESE 4.0 mph 5.0 mph 60 % 0.00 in
10:14 75.6 °F 60.6 °F 30.13 in NE 2.0 mph 5.0 mph 60 % 0.00 in
10:19 75.7 °F 61.3 °F 30.13 in ESE 2.0 mph 7.0 mph 61 % 0.00 in
10:24 76.3 °F 61.9 °F 30.14 in SSE 2.0 mph 7.0 mph 61 % 0.00 in
10:29 76.5 °F 61.5 °F 30.14 in ESE 2.0 mph 7.0 mph 60 % 0.00 in
10:34 76.6 °F 61.2 °F 30.14 in Calm   8.0 mph 59 % 0.00 in
10:37 77.0 °F 62.1 °F 30.14 in NE 3.0 mph 8.0 mph 60 % 0.00 in
10:42 77.4 °F 60.4 °F 30.14 in NE 4.0 mph 8.0 mph 56 % 0.00 in
10:47 77.2 °F 60.8 °F 30.14 in ENE 4.0 mph 7.0 mph 57 % 0.00 in
10:52 77.5 °F 62.1 °F 30.14 in SE 2.0 mph 8.0 mph 59 % 0.00 in
10:57 78.4 °F 62.4 °F 30.15 in ESE 4.0 mph 8.0 mph 58 % 0.00 in
11:02 78.4 °F 61.0 °F 30.14 in NE 1.0 mph 8.0 mph 55 % 0.00 in
11:07 78.3 °F 60.8 °F 30.14 in SE 1.0 mph 7.0 mph 55 % 0.00 in
11:12 78.4 °F 61.9 °F 30.14 in NW 1.0 mph 7.0 mph 57 % 0.00 in
11:17 78.8 °F 61.3 °F 30.14 in North 2.0 mph 6.0 mph 55 % 0.00 in
11:22 78.4 °F 59.9 °F 30.14 in ENE 3.0 mph 11.0 mph 53 % 0.00 in
11:27 78.6 °F 61.5 °F 30.14 in NNE 1.0 mph 11.0 mph 56 % 0.00 in
11:32 79.0 °F 60.4 °F 30.14 in NNE 4.0 mph 11.0 mph 53 % 0.00 in
11:37 78.8 °F 60.3 °F 30.13 in ESE 5.0 mph 7.0 mph 53 % 0.00 in
11:42 78.6 °F 61.5 °F 30.13 in NE 2.0 mph 11.0 mph 56 % 0.00 in
11:47 79.3 °F 60.8 °F 30.13 in Calm   11.0 mph 53 % 0.00 in
11:53 79.7 °F 59.4 °F 30.13 in SE 3.0 mph 11.0 mph 50 % 0.00 in
11:58 79.7 °F 60.4 °F 30.13 in NE 3.0 mph 8.0 mph 52 % 0.00 in
12:03 79.5 °F 60.8 °F 30.13 in NE 2.0 mph 8.0 mph 53 % 0.00 in
12:08 79.3 °F 60.8 °F 30.12 in WNW 2.0 mph 8.0 mph 53 % 0.00 in
12:13 79.9 °F 60.6 °F 30.12 in East 1.0 mph 8.0 mph 52 % 0.00 in
12:18 80.2 °F 59.9 °F 30.12 in ENE 5.0 mph 7.0 mph 50 % 0.00 in
12:23 80.4 °F 60.1 °F 30.12 in NNW 7.0 mph 7.0 mph 50 % 0.00 in
12:28 80.6 °F 59.7 °F 30.12 in WSW 3.0 mph 9.0 mph 49 % 0.00 in
12:33 80.8 °F 61.0 °F 30.12 in WNW 2.0 mph 9.0 mph 51 % 0.00 in
12:38 80.8 °F 60.4 °F 30.12 in North 3.0 mph 9.0 mph 50 % 0.00 in
12:43 80.4 °F 60.6 °F 30.12 in NW 5.0 mph 7.0 mph 51 % 0.00 in
12:48 80.8 °F 61.0 °F 30.12 in ENE 2.0 mph 8.0 mph 51 % 0.00 in
12:53 80.8 °F 59.2 °F 30.12 in SE 2.0 mph 8.0 mph 48 % 0.00 in
12:58 81.0 °F 60.1 °F 30.11 in SSE 1.0 mph 8.0 mph 49 % 0.00 in
13:03 81.1 °F 59.5 °F 30.11 in NW 1.0 mph 9.0 mph 48 % 0.00 in
13:08 81.0 °F 60.1 °F 30.11 in East 3.0 mph 9.0 mph 49 % 0.00 in
13:13 81.0 °F 60.6 °F 30.11 in NE 3.0 mph 9.0 mph 50 % 0.00 in
13:18 81.3 °F 61.0 °F 30.11 in ENE 5.0 mph 7.0 mph 50 % 0.00 in
13:23 81.5 °F 59.4 °F 30.11 in NNW 3.0 mph 9.0 mph 47 % 0.00 in
13:28 81.3 °F 61.0 °F 30.11 in NW 3.0 mph 9.0 mph 50 % 0.00 in
13:33 81.7 °F 61.9 °F 30.10 in South 4.0 mph 9.0 mph 51 % 0.00 in
13:38 81.7 °F 60.1 °F 30.10 in ESE 2.0 mph 9.0 mph 48 % 0.00 in
13:43 81.7 °F 61.2 °F 30.10 in SE 3.0 mph 9.0 mph 50 % 0.00 in
13:49 81.3 °F 59.2 °F 30.10 in NE 2.0 mph 8.0 mph 47 % 0.00 in
13:54 81.7 °F 61.2 °F 30.10 in East 2.0 mph 7.0 mph 50 % 0.00 in
13:58 81.9 °F 60.3 °F 30.10 in NNW 1.0 mph 7.0 mph 48 % 0.00 in
14:03 82.0 °F 61.5 °F 30.09 in North 4.0 mph 7.0 mph 50 % 0.00 in
14:08 82.0 °F 59.9 °F 30.09 in NE 4.0 mph 7.0 mph 47 % 0.00 in
14:13 82.2 °F 61.7 °F 30.09 in ENE 2.0 mph 8.0 mph 50 % 0.00 in
14:19 82.2 °F 60.6 °F 30.09 in East 2.0 mph 8.0 mph 48 % 0.00 in
14:24 82.4 °F 60.8 °F 30.08 in West 2.0 mph 8.0 mph 48 % 0.00 in
14:29 82.6 °F 60.3 °F 30.08 in NE 2.0 mph 7.0 mph 47 % 0.00 in
14:34 82.6 °F 61.0 °F 30.08 in NNW 3.0 mph 6.0 mph 48 % 0.00 in
14:39 82.8 °F 61.0 °F 30.08 in Calm   8.0 mph 48 % 0.00 in
14:44 82.9 °F 61.9 °F 30.08 in WNW 2.0 mph 8.0 mph 49 % 0.00 in
14:49 83.5 °F 61.2 °F 30.08 in NNW 2.0 mph 8.0 mph 47 % 0.00 in
14:54 83.5 °F 61.2 °F 30.07 in North 2.0 mph 7.0 mph 47 % 0.00 in
14:59 83.1 °F 60.3 °F 30.07 in NNW 2.0 mph 7.0 mph 46 % 0.00 in
15:04 83.1 °F 61.3 °F 30.06 in NNW 4.0 mph 7.0 mph 48 % 0.00 in
15:09 83.1 °F 59.5 °F 30.06 in NW 1.0 mph 7.0 mph 45 % 0.00 in
15:14 83.5 °F 59.9 °F 30.06 in NW 1.0 mph 8.0 mph 45 % 0.00 in
15:19 83.1 °F 60.8 °F 30.06 in NNE 3.0 mph 8.0 mph 47 % 0.00 in
15:24 82.9 °F 60.6 °F 30.06 in WSW 1.0 mph 8.0 mph 47 % 0.00 in
15:29 82.8 °F 59.9 °F 30.06 in NW 3.0 mph 7.0 mph 46 % 0.00 in
15:34 82.8 °F 61.0 °F 30.05 in ENE 2.0 mph 8.0 mph 48 % 0.00 in
15:39 82.8 °F 59.9 °F 30.05 in ENE 1.0 mph 8.0 mph 46 % 0.00 in
15:44 82.9 °F 59.4 °F 30.05 in ESE 3.0 mph 9.0 mph 45 % 0.00 in
15:49 83.1 °F 60.3 °F 30.04 in ENE 2.0 mph 9.0 mph 46 % 0.00 in
15:54 83.3 °F 59.7 °F 30.04 in North 4.0 mph 9.0 mph 45 % 0.00 in
15:59 83.5 °F 60.4 °F 30.04 in NW 1.0 mph 7.0 mph 46 % 0.00 in
16:04 83.5 °F 59.4 °F 30.04 in NW 3.0 mph 7.0 mph 44 % 0.00 in
16:09 83.5 °F 60.4 °F 30.04 in NNW 2.0 mph 7.0 mph 46 % 0.00 in
16:14 83.1 °F 59.5 °F 30.05 in NW 3.0 mph 8.0 mph 45 % 0.00 in
16:19 83.5 °F 59.4 °F 30.05 in ENE 4.0 mph 8.0 mph 44 % 0.00 in
16:24 83.5 °F 61.7 °F 30.04 in NW 1.0 mph 8.0 mph 48 % 0.00 in
16:29 83.7 °F 61.3 °F 30.04 in Calm   8.0 mph 47 % 0.00 in
16:34 83.7 °F 60.6 °F 30.04 in WNW 2.0 mph 8.0 mph 46 % 0.00 in
16:39 83.8 °F 61.5 °F 30.04 in ENE 3.0 mph 8.0 mph 47 % 0.00 in
16:44 83.8 °F 61.5 °F 30.04 in NE 1.0 mph 8.0 mph 47 % 0.00 in
16:49 83.8 °F 60.8 °F 30.04 in ENE 3.0 mph 5.0 mph 46 % 0.00 in
16:54 83.5 °F 60.4 °F 30.04 in ENE 2.0 mph 6.0 mph 46 % 0.00 in
16:59 83.3 °F 60.4 °F 30.04 in Calm   6.0 mph 46 % 0.00 in
17:04 83.5 °F 60.4 °F 30.04 in North 2.0 mph 6.0 mph 46 % 0.00 in
17:09 83.7 °F 60.6 °F 30.04 in Calm   6.0 mph 46 % 0.00 in
17:14 83.8 °F 61.5 °F 30.04 in North 3.0 mph 6.0 mph 47 % 0.00 in
17:19 83.7 °F 60.6 °F 30.04 in NNW 1.0 mph 5.0 mph 46 % 0.00 in
17:24 83.7 °F 59.4 °F 30.04 in NW 4.0 mph 5.0 mph 44 % 0.00 in
17:29 83.3 °F 60.4 °F 30.04 in NNW 3.0 mph 6.0 mph 46 % 0.00 in
17:34 83.5 °F 59.9 °F 30.04 in Calm   6.0 mph 45 % 0.00 in
17:39 83.7 °F 60.6 °F 30.04 in WNW 1.0 mph 6.0 mph 46 % 0.00 in
17:44 83.5 °F 60.4 °F 30.04 in WNW 2.0 mph 7.0 mph 46 % 0.00 in
17:49 83.5 °F 61.2 °F 30.03 in NW 2.0 mph 7.0 mph 47 % 0.00 in
17:54 83.3 °F 61.0 °F 30.04 in NE 1.0 mph 7.0 mph 47 % 0.00 in
17:59 82.8 °F 60.4 °F 30.04 in WNW 2.0 mph 6.0 mph 47 % 0.00 in
18:01 82.8 °F 61.0 °F 30.04 in NNW 1.0 mph 10.0 mph 48 % 0.00 in
18:06 82.8 °F 60.4 °F 30.04 in NE 2.0 mph 10.0 mph 47 % 0.00 in
18:11 82.8 °F 59.9 °F 30.04 in East 2.0 mph 10.0 mph 46 % 0.00 in
18:16 82.9 °F 60.1 °F 30.04 in Calm   6.0 mph 46 % 0.00 in
18:21 82.8 °F 59.9 °F 30.04 in NE 1.0 mph 6.0 mph 46 % 0.00 in
18:26 82.4 °F 59.5 °F 30.03 in ENE 1.0 mph 5.0 mph 46 % 0.00 in
18:32 82.0 °F 59.9 °F 30.03 in NW 1.0 mph 5.0 mph 47 % 0.00 in
18:36 81.7 °F 60.1 °F 30.03 in ENE 4.0 mph 6.0 mph 48 % 0.00 in
18:42 81.1 °F 60.1 °F 30.03 in NE 2.0 mph 6.0 mph 49 % 0.00 in
18:47 81.0 °F 60.6 °F 30.03 in NW 1.0 mph 6.0 mph 50 % 0.00 in
18:52 80.8 °F 60.4 °F 30.03 in NW 2.0 mph 5.0 mph 50 % 0.00 in
18:57 80.6 °F 60.8 °F 30.03 in Calm   5.0 mph 51 % 0.00 in
19:02 80.4 °F 60.6 °F 30.03 in Calm   4.0 mph 51 % 0.00 in
19:07 80.4 °F 60.6 °F 30.03 in Calm   4.0 mph 51 % 0.00 in
19:12 80.2 °F 60.4 °F 30.03 in Calm   4.0 mph 51 % 0.00 in
19:17 79.5 °F 60.4 °F 30.03 in NE 1.0 mph 4.0 mph 52 % 0.00 in
19:22 79.0 °F 60.4 °F 30.03 in Calm   4.0 mph 53 % 0.00 in
19:27 78.4 °F 60.4 °F 30.04 in Calm   4.0 mph 54 % 0.00 in
19:32 78.1 °F 61.2 °F 30.04 in Calm   2.0 mph 56 % 0.00 in
19:37 77.5 °F 61.2 °F 30.04 in Calm   2.0 mph 57 % 0.00 in
19:42 77.2 °F 60.8 °F 30.04 in Calm   2.0 mph 57 % 0.00 in
19:47 76.8 °F 61.0 °F 30.04 in Calm   2.0 mph 58 % 0.00 in
19:52 76.5 °F 61.5 °F 30.04 in Calm   1.0 mph 60 % 0.00 in
19:57 76.1 °F 61.2 °F 30.04 in Calm   1.0 mph 60 % 0.00 in
20:02 75.7 °F 61.3 °F 30.04 in Calm   1.0 mph 61 % 0.00 in
20:07 75.4 °F 61.5 °F 30.04 in Calm   1.0 mph 62 % 0.00 in
20:12 74.8 °F 61.3 °F 30.04 in Calm   1.0 mph 63 % 0.00 in
20:17 74.7 °F 61.7 °F 30.04 in Calm   1.0 mph 64 % 0.00 in
20:22 74.1 °F 61.5 °F 30.04 in Calm   1.0 mph 65 % 0.00 in
20:27 73.9 °F 61.9 °F 30.04 in Calm   1.0 mph 66 % 0.00 in
20:32 73.8 °F 61.7 °F 30.04 in Calm   1.0 mph 66 % 0.00 in
20:37 73.6 °F 61.9 °F 30.04 in Calm   1.0 mph 67 % 0.00 in
20:42 73.2 °F 61.5 °F 30.04 in Calm   1.0 mph 67 % 0.00 in
20:47 73.0 °F 61.9 °F 30.05 in Calm   1.0 mph 68 % 0.00 in
20:52 72.9 °F 62.1 °F 30.05 in Calm   1.0 mph 69 % 0.00 in
20:57 72.7 °F 61.9 °F 30.05 in Calm   1.0 mph 69 % 0.00 in
21:02 72.3 °F 61.5 °F 30.05 in Calm   1.0 mph 69 % 0.00 in
21:07 72.3 °F 62.1 °F 30.05 in Calm   1.0 mph 70 % 0.00 in
21:12 72.1 °F 62.2 °F 30.05 in Calm   1.0 mph 71 % 0.00 in
21:17 72.0 °F 62.1 °F 30.06 in Calm   1.0 mph 71 % 0.00 in
21:22 72.0 °F 62.1 °F 30.06 in Calm   2.0 mph 71 % 0.00 in
21:27 71.8 °F 61.9 °F 30.06 in Calm   2.0 mph 71 % 0.00 in
21:32 71.4 °F 61.9 °F 30.06 in Calm   2.0 mph 72 % 0.00 in
21:37 71.2 °F 61.7 °F 30.06 in Calm   1.0 mph 72 % 0.00 in
21:42 71.2 °F 62.1 °F 30.06 in Calm     73 % 0.00 in
21:47 71.1 °F 61.9 °F 30.06 in Calm     73 % 0.00 in
21:52 70.9 °F 62.2 °F 30.06 in Calm     74 % 0.00 in
21:57 70.5 °F 62.2 °F 30.06 in Calm     75 % 0.00 in
22:02 70.3 °F 62.4 °F 30.07 in Calm   1.0 mph 76 % 0.00 in
22:07 70.2 °F 62.2 °F 30.07 in Calm   1.0 mph 76 % 0.00 in
22:13 70.2 °F 62.2 °F 30.07 in Calm   1.0 mph 76 % 0.00 in
22:18 70.2 °F 62.2 °F 30.07 in Calm   1.0 mph 76 % 0.00 in
22:21 70.0 °F 62.4 °F 30.07 in Calm   1.0 mph 77 % 0.00 in
22:25 70.0 °F 62.4 °F 30.07 in Calm   1.0 mph 77 % 0.00 in
22:30 70.0 °F 62.4 °F 30.07 in Calm   1.0 mph 77 % 0.00 in
22:35 70.0 °F 62.4 °F 30.07 in Calm   1.0 mph 77 % 0.00 in
22:40 69.8 °F 62.2 °F 30.07 in Calm   1.0 mph 77 % 0.00 in
22:45 69.6 °F 62.4 °F 30.07 in Calm   1.0 mph 78 % 0.00 in
22:50 69.3 °F 62.1 °F 30.08 in Calm     78 % 0.00 in
22:55 69.1 °F 62.2 °F 30.08 in Calm     79 % 0.00 in
22:57 68.9 °F 62.1 °F 30.07 in Calm     79 % 0.00 in
23:02 68.7 °F 62.2 °F 30.07 in Calm     80 % 0.00 in
23:07 68.7 °F 62.2 °F 30.07 in Calm     80 % 0.00 in
23:12 68.5 °F 62.1 °F 30.08 in Calm     80 % 0.00 in
23:17 68.5 °F 62.1 °F 30.08 in Calm   1.0 mph 80 % 0.00 in
23:22 68.4 °F 62.2 °F 30.08 in Calm   1.0 mph 81 % 0.00 in
23:27 68.2 °F 62.1 °F 30.08 in Calm   1.0 mph 81 % 0.00 in
23:32 68.0 °F 62.2 °F 30.08 in Calm   1.0 mph 82 % 0.00 in
23:37 68.0 °F 62.2 °F 30.08 in Calm   1.0 mph 82 % 0.00 in
23:42 68.2 °F 62.4 °F 30.08 in Calm   1.0 mph 82 % 0.00 in
23:47 68.2 °F 62.4 °F 30.08 in Calm   1.0 mph 82 % 0.00 in
23:52 68.2 °F 62.1 °F 30.08 in Calm   1.0 mph 81 % 0.00 in
23:57 68.2 °F 62.1 °F 30.09 in Calm   1.0 mph 81 % 0.00 in
Spring, Texas: Villages of Bridgestone
Compliments of Weather Underground - 2.75 mb

Script developed by  Jim McMurry - jmcmurry@mwt.net Adapted for the template by  Wim van der Kuil - Leuven-Template.eu

You find our weather info also at:

UK Metoffice

WeatherCloud

Weather Underground

Mid-South Weather Network

AWEKAS

Citizen Weather Observer Program (CWOP)

HAMweather, WeatherForYou, PWS Weather

Equipment we use:

Weather-station
Davis Vantage Vue

Weather-program
Meteohub

Weather-server
Debian 7.9 x86 (Guest)

Provider
DreamHost

Davis Vantage Vue

Meteohub

Debian 7.9 x86 (Guest)

DreamHost